Location: Hall+in+Tirol
(47.2830°N, 11.5170°E)
Time: 08:55:32
(UTC+02:00)

Amateur Radio Satellites - All Passes

Search period start: 02 September 2014 08:25
Search period end: 03 September 2014 08:25
Location: Hall+in+Tirol, 47.2830°N, 11.5170°E

Satellite Date Start Highest point End Downlink Frequencies (MHz)
Time Altitude Azimuth
STRAND 1 02 Sep 08:45:50 08:48:15 13° 272° (W) 08:50:41 ?
HO-68 02 Sep 08:46:18 08:50:09 15° 86° (E) 08:53:59 435.675 MHz FM
JAS-2 02 Sep 08:52:33 08:56:38 24° 298° (WNW) 09:00:55 435.800 - 435.900 CW/SSB, 435.910 FM
Hamsat 02 Sep 09:08:14 09:08:57 10° 304° (WNW) 09:09:40 145.90 MHz
RS-15 02 Sep 09:13:42 09:24:44 76° 311° (NW) 09:35:44 29.354 - 29.394 USB, Beacon 29.352 USB
UKube-1 02 Sep 09:29:00 09:30:14 11° 88° (E) 09:31:28 145.840 MHz, 145.915 MHz
AO-7 02 Sep 09:35:22 09:36:32 10° 331° (NNW) 09:37:41 29.400 - 29.500 MHz
ISS 02 Sep 09:38:14 09:39:59 14° 135° (SE) 09:41:44 145.800 FM
KITSAT 1 02 Sep 09:38:21 09:45:46 42° 249° (WSW) 09:53:09 435.175 FM
SO-50 02 Sep 09:41:46 09:44:11 14° 22° (NNE) 09:46:38 436.795 FM
SO-67 02 Sep 09:55:44 09:56:40 11° 298° (WNW) 09:57:36 435.3500 MHz FM
HO-68 02 Sep 10:31:51 10:39:03 76° 105° (ESE) 10:46:12 435.675 MHz FM
UKube-1 02 Sep 11:02:40 11:07:02 83° 286° (WNW) 11:11:22 145.840 MHz, 145.915 MHz
Oscar 11 02 Sep 11:06:07 11:10:31 76° 103° (ESE) 11:14:53 145.825 FM, Beacon 2401.500 USB
ISS 02 Sep 11:12:55 11:16:14 74° 152° (SSE) 11:19:34 145.800 FM
SO-50 02 Sep 11:21:26 11:25:59 42° 44° (NE) 11:30:35 436.795 FM
UOSAT-12 02 Sep 11:27:50 11:30:09 13° 20° (NNE) 11:32:27 437.025 FM, 437.400 FM
RS-15 02 Sep 11:29:20 11:39:09 36° 341° (NNW) 11:49:03 29.354 - 29.394 USB, Beacon 29.352 USB
FUNcube-1 02 Sep 11:38:30 11:43:03 69° 102° (ESE) 11:47:38 145.950 - 145.970 MHz USB
Oscar 16 02 Sep 12:14:28 12:17:26 16° 56° (NE) 12:20:24 437.025 USB, Beacon 2401.1428
HO-68 02 Sep 12:20:24 12:26:07 27° 306° (NW) 12:31:51 435.675 MHz FM
MaSat-1 02 Sep 12:38:05 12:42:18 28° 106° (ESE) 12:46:39 437.345 MHz
UKube-1 02 Sep 12:41:14 12:42:31 11° 304° (NW) 12:43:48 145.840 MHz, 145.915 MHz
Oscar 11 02 Sep 12:43:51 12:46:08 14° 301° (WNW) 12:48:25 145.825 FM, Beacon 2401.500 USB
AO-27 02 Sep 12:47:25 12:50:02 14° 54° (NE) 12:52:38 436.795 MHz FM
JAS-1B 02 Sep 12:49:49 12:57:15 28° 56° (NE) 13:03:56 435.800 - 435.900 CW/SSB
ISS 02 Sep 12:49:59 12:53:09 40° 352° (N) 12:56:20 145.800 FM
SO-50 02 Sep 13:02:11 13:06:29 33° 243° (WSW) 13:10:48 436.795 FM
UOSAT-12 02 Sep 13:07:06 13:11:35 40° 43° (NE) 13:16:01 437.025 FM, 437.400 FM
AO-7 02 Sep 13:13:36 13:13:55 10° 28° (NNE) 13:14:14 29.400 - 29.500 MHz
Oscar 19 02 Sep 13:15:52 13:20:45 45° 68° (ENE) 13:25:42 437.125 CW, 437.150 USB
FUNcube-1 02 Sep 13:16:08 13:18:57 16° 299° (WNW) 13:21:47 145.950 - 145.970 MHz USB
AO-Echo 02 Sep 13:23:49 13:27:54 27° 64° (ENE) 13:31:54 ?
Gurwin Techsat 1B 02 Sep 13:29:31 13:32:33 16° 55° (NE) 13:35:35 435.225 FM
RS-15 02 Sep 13:45:40 13:55:23 34° 16° (NNE) 14:05:18 29.354 - 29.394 USB, Beacon 29.352 USB
Oscar 16 02 Sep 13:50:53 13:56:04 90° 81° (E) 14:01:18 437.025 USB, Beacon 2401.1428
ITAMSAT 1 02 Sep 13:54:08 13:59:02 45° 68° (ENE) 14:03:57 435.822 SSB
Uribyol 2 02 Sep 14:03:15 14:08:17 57° 70° (ENE) 14:13:21 436.500 FM
MaSat-1 02 Sep 14:14:11 14:19:05 49° 306° (NW) 14:24:06 437.345 MHz
TMSAT-1 02 Sep 14:17:36 14:22:00 28° 62° (ENE) 14:26:25 436.925 FM
AO-27 02 Sep 14:23:34 14:28:45 81° 73° (ENE) 14:33:57 436.795 MHz FM
ISS 02 Sep 14:27:06 14:30:19 44° 12° (NNE) 14:33:32 145.800 FM
JAS-1B 02 Sep 14:37:18 14:47:01 88° 254° (WSW) 14:55:31 435.800 - 435.900 CW/SSB
UOSAT-12 02 Sep 14:47:25 14:51:42 35° 243° (WSW) 14:55:56 437.025 FM, 437.400 FM
Oscar 19 02 Sep 14:55:55 15:00:17 27° 266° (W) 15:04:41 437.125 CW, 437.150 USB
AO-7 02 Sep 14:57:02 15:04:08 33° 53° (NE) 15:11:12 29.400 - 29.500 MHz
AO-Echo 02 Sep 15:01:45 15:06:30 43° 261° (W) 15:11:08 ?
Gurwin Techsat 1B 02 Sep 15:06:27 15:11:46 88° 74° (ENE) 15:17:07 435.225 FM
Oscar 16 02 Sep 15:33:48 15:36:09 13° 273° (W) 15:38:32 437.025 USB, Beacon 2401.1428
ITAMSAT 1 02 Sep 15:34:24 15:38:44 27° 266° (W) 15:43:05 435.822 SSB
Uribyol 2 02 Sep 15:44:16 15:48:08 21° 268° (W) 15:52:02 436.500 FM
Uosat F 02 Sep 15:54:28 15:59:06 39° 67° (ENE) 16:03:45 435.120 FM
MaSat-1 02 Sep 15:54:58 15:57:19 13° 327° (NNW) 15:59:39 437.345 MHz
TMSAT-1 02 Sep 15:56:36 16:01:41 48° 261° (W) 16:06:49 436.925 FM
RS-15 02 Sep 15:59:06 16:10:07 69° 46° (NE) 16:21:31 29.354 - 29.394 USB, Beacon 29.352 USB
ISS 02 Sep 16:03:52 16:07:09 57° 211° (SSW) 16:10:25 145.800 FM
AO-27 02 Sep 16:06:04 16:08:55 15° 272° (W) 16:11:46 436.795 MHz FM
Sapphire 02 Sep 16:08:01 16:12:04 22° 107° (ESE) 16:16:08 437.095 MHz 1200 baud AX-25 AFSK
JAS-1B 02 Sep 16:31:07 16:38:19 24° 272° (W) 16:44:59 435.800 - 435.900 CW/SSB
PCSat 02 Sep 16:36:00 16:40:59 39° 113° (ESE) 16:46:00 145.825 MHz
AO-7 02 Sep 16:48:00 16:56:19 73° 254° (WSW) 17:04:40 29.400 - 29.500 MHz
Gurwin Techsat 1B 02 Sep 16:49:48 16:52:28 14° 273° (W) 16:55:09 435.225 FM
Hamsat 02 Sep 16:52:04 16:54:23 14° 60° (ENE) 16:56:42 145.90 MHz
OPAL 02 Sep 17:22:36 17:27:25 36° 99° (E) 17:32:10 ?
JAS-2 02 Sep 17:22:44 17:27:54 34° 66° (ENE) 17:32:41 435.800 - 435.900 CW/SSB, 435.910 FM
Uosat F 02 Sep 17:33:38 17:37:59 29° 265° (W) 17:42:21 435.120 FM
Sapphire 02 Sep 17:49:38 17:55:00 66° 307° (NW) 18:00:26 437.095 MHz 1200 baud AX-25 AFSK
RS-15 02 Sep 18:11:56 18:21:58 42° 250° (WSW) 18:32:24 29.354 - 29.394 USB, Beacon 29.352 USB
PCSat 02 Sep 18:19:18 18:24:24 40° 313° (NW) 18:29:32 145.825 MHz
Hamsat 02 Sep 18:25:26 18:29:46 75° 258° (WSW) 18:34:09 145.90 MHz
AO-7 02 Sep 18:45:53 18:50:34 16° 274° (W) 18:55:16 29.400 - 29.500 MHz
SO-67 02 Sep 18:56:44 18:59:52 33° 71° (ENE) 19:03:02 435.3500 MHz FM
OPAL 02 Sep 19:01:31 19:06:16 36° 297° (WNW) 19:10:59 ?
JAS-2 02 Sep 19:07:29 19:13:00 39° 262° (W) 19:18:03 435.800 - 435.900 CW/SSB, 435.910 FM
STRAND 1 02 Sep 19:11:20 19:15:21 23° 93° (E) 19:19:22 ?
HO-68 02 Sep 19:18:58 19:23:43 20° 49° (NE) 19:28:28 435.675 MHz FM
Sapphire 02 Sep 19:35:51 19:39:30 18° 329° (NNW) 19:43:09 437.095 MHz 1200 baud AX-25 AFSK
PCSat 02 Sep 20:06:49 20:09:22 13° 337° (NNW) 20:11:56 145.825 MHz
Oscar 10/S400 02 Sep 20:24:58 20:45:00 47° 161° (SSE) 22:36:20 145.825 - 145.975 CW/USB, Beacon 145.810 USB
UKube-1 02 Sep 20:26:58 20:29:41 16° 60° (ENE) 20:32:23 145.840 MHz, 145.915 MHz
SO-67 02 Sep 20:30:41 20:33:02 17° 268° (W) 20:35:25 435.3500 MHz FM
Oscar 11 02 Sep 20:31:19 20:32:51 12° 57° (ENE) 20:34:22 145.825 FM, Beacon 2401.500 USB
STRAND 1 02 Sep 20:49:53 20:54:51 52° 291° (WNW) 20:59:47 ?
MaSat-1 02 Sep 20:52:27 20:55:43 18° 39° (NE) 20:58:44 437.345 MHz
HO-68 02 Sep 21:03:14 21:10:22 77° 70° (ENE) 21:17:31 435.675 MHz FM
FUNcube-1 02 Sep 21:06:00 21:06:39 10° 56° (NE) 21:07:18 145.950 - 145.970 MHz USB
UKube-1 02 Sep 22:01:07 22:05:25 63° 258° (WSW) 22:09:45 145.840 MHz, 145.915 MHz
Oscar 11 02 Sep 22:03:59 22:08:20 87° 76° (ENE) 22:12:43 145.825 FM, Beacon 2401.500 USB
KITSAT 1 02 Sep 22:16:37 22:22:26 22° 103° (ESE) 22:28:16 435.175 FM
AO-40 02 Sep 22:23:34 04:03:11 35° 181° (S) 07:57:15 Beacon 2401.320
MaSat-1 02 Sep 22:28:46 22:33:26 81° 243° (WSW) 22:37:26 437.345 MHz
Saudisat 1A 02 Sep 22:30:00 22:34:15 49° 121° (ESE) 22:38:31 436.775 MHz
FUNcube-1 02 Sep 22:38:03 22:42:15 79° 75° (ENE) 22:46:36 145.950 - 145.970 MHz USB
HO-68 02 Sep 22:53:22 22:58:48 23° 269° (W) 23:04:16 435.675 MHz FM
Sapphire 02 Sep 23:08:58 23:11:27 13° 22° (NNE) 23:13:56 437.095 MHz 1200 baud AX-25 AFSK
PCSat 02 Sep 23:37:43 23:41:19 18° 30° (NNE) 23:44:55 145.825 MHz
Oscar 11 02 Sep 23:44:23 23:45:09 10° 273° (W) 23:45:56 145.825 FM, Beacon 2401.500 USB
KITSAT 1 03 Sep 00:08:41 00:16:47 89° 124° (SE) 00:24:57 435.175 FM
Saudisat 1A 03 Sep 00:10:11 00:14:02 28° 321° (NW) 00:17:54 436.775 MHz
FUNcube-1 03 Sep 00:18:06 00:19:17 11° 273° (W) 00:20:29 145.950 - 145.970 MHz USB
Sapphire 03 Sep 00:51:22 00:56:28 39° 46° (NE) 01:01:32 437.095 MHz 1200 baud AX-25 AFSK
PCSat 03 Sep 01:20:25 01:25:50 64° 53° (NE) 01:31:13 145.825 MHz
Oscar 19 03 Sep 01:26:16 01:28:17 12° 86° (E) 01:30:17 437.125 CW, 437.150 USB
Saudisat 1A 03 Sep 01:54:29 01:55:05 10° 344° (NNW) 01:55:41 436.775 MHz
Oscar 16 03 Sep 01:59:58 02:04:16 26° 93° (E) 02:08:32 437.025 USB, Beacon 2401.1428
ITAMSAT 1 03 Sep 02:05:45 02:07:47 12° 87° (E) 02:09:50 435.822 SSB
KITSAT 1 03 Sep 02:06:06 02:13:14 33° 328° (NNW) 02:20:23 435.175 FM
Uribyol 2 03 Sep 02:14:01 02:17:08 16° 89° (E) 02:20:14 436.500 FM
JAS-1B 03 Sep 02:22:26 02:26:59 19° 85° (E) 02:31:10 435.800 - 435.900 CW/SSB
AO-27 03 Sep 02:34:05 02:38:09 23° 92° (E) 02:42:12 436.795 MHz FM
Sapphire 03 Sep 02:34:52 02:39:56 41° 246° (WSW) 02:44:58 437.095 MHz 1200 baud AX-25 AFSK
Oscar 19 03 Sep 03:03:10 03:08:25 85° 104° (ESE) 03:13:37 437.125 CW, 437.150 USB
OPAL 03 Sep 03:04:27 03:07:28 16° 53° (NE) 03:10:29 ?
PCSat 03 Sep 03:04:38 03:08:48 23° 252° (WSW) 03:12:57 145.825 MHz
AO-Echo 03 Sep 03:05:27 03:09:58 45° 99° (E) 03:14:29 ?
SO-50 03 Sep 03:19:49 03:23:58 38° 118° (ESE) 03:28:13 436.795 FM
Gurwin Techsat 1B 03 Sep 03:19:55 03:24:28 28° 94° (E) 03:28:58 435.225 FM
Oscar 16 03 Sep 03:38:51 03:43:51 48° 291° (WNW) 03:48:49 437.025 USB, Beacon 2401.1428
ITAMSAT 1 03 Sep 03:42:51 03:48:04 85° 105° (ESE) 03:53:16 435.822 SSB
Uribyol 2 03 Sep 03:52:00 03:57:12 77° 287° (WNW) 04:02:24 436.500 FM
KITSAT 1 03 Sep 04:05:50 04:11:32 20° 357° (N) 04:17:13 435.175 FM
TMSAT-1 03 Sep 04:08:56 04:14:09 54° 100° (E) 04:19:20 436.925 FM
JAS-1B 03 Sep 04:11:51 04:18:39 72° 289° (WNW) 04:24:31 435.800 - 435.900 CW/SSB
AO-27 03 Sep 04:12:56 04:17:59 54° 291° (WNW) 04:23:02 436.795 MHz FM
OPAL 03 Sep 04:40:31 04:45:36 89° 72° (ENE) 04:50:49 ?
Oscar 19 03 Sep 04:43:55 04:47:05 17° 303° (WNW) 04:50:16 437.125 CW, 437.150 USB
AO-Echo 03 Sep 04:44:47 04:48:32 24° 297° (WNW) 04:52:17 ?
AO-7 03 Sep 04:46:21 04:53:37 33° 95° (E) 05:00:50 29.400 - 29.500 MHz
Gurwin Techsat 1B 03 Sep 04:59:34 05:04:37 45° 292° (WNW) 05:09:39 435.225 FM
SO-50 03 Sep 05:00:25 05:04:34 35° 319° (NW) 05:08:51 436.795 FM
UOSAT-12 03 Sep 05:01:16 05:05:25 34° 117° (ESE) 05:09:39 437.025 FM, 437.400 FM
Saudisat 1A 03 Sep 05:14:45 05:18:07 21° 33° (NNE) 05:21:27 436.775 MHz
ITAMSAT 1 03 Sep 05:23:45 05:26:54 16° 304° (WNW) 05:30:02 435.822 SSB
Uribyol 2 03 Sep 05:33:25 05:35:50 13° 306° (NW) 05:38:16 436.500 FM
Uosat F 03 Sep 05:37:11 05:42:11 67° 103° (ESE) 05:47:10 435.120 FM
TMSAT-1 03 Sep 05:49:31 05:53:45 25° 299° (WNW) 05:57:59 436.925 FM
KITSAT 1 03 Sep 06:03:11 06:10:01 29° 27° (NNE) 06:16:49 435.175 FM
JAS-1B 03 Sep 06:04:09 06:07:53 16° 314° (NW) 06:11:22 435.800 - 435.900 CW/SSB
Hamsat 03 Sep 06:09:13 06:12:00 17° 90° (E) 06:14:46 145.90 MHz
JAS-2 03 Sep 06:12:29 06:16:23 20° 92° (E) 06:20:28 435.800 - 435.900 CW/SSB, 435.910 FM
OPAL 03 Sep 06:22:47 06:25:13 13° 271° (W) 06:27:40 ?
RS-15 03 Sep 06:29:13 06:37:45 27° 103° (ESE) 06:46:09 29.354 - 29.394 USB, Beacon 29.352 USB
STRAND 1 03 Sep 06:30:08 06:34:58 46° 68° (ENE) 06:39:49 ?
AO-7 03 Sep 06:38:46 06:46:57 66° 295° (WNW) 06:55:05 29.400 - 29.500 MHz
UOSAT-12 03 Sep 06:41:07 06:45:31 40° 317° (NW) 06:50:00 437.025 FM, 437.400 FM
SO-50 03 Sep 06:44:38 06:46:31 12° 342° (NNW) 06:48:25 436.795 FM
Saudisat 1A 03 Sep 06:53:48 06:58:15 82° 234° (SW) 07:02:39 436.775 MHz
Uosat F 03 Sep 07:16:59 07:20:30 20° 301° (WNW) 07:24:00 435.120 FM
Hamsat 03 Sep 07:44:03 07:48:19 55° 288° (WNW) 07:52:32 145.90 MHz
SO-67 03 Sep 07:50:20 07:53:18 26° 95° (E) 07:56:14 435.3500 MHz FM
JAS-2 03 Sep 07:56:44 08:01:54 61° 289° (WNW) 08:07:28 435.800 - 435.900 CW/SSB, 435.910 FM
KITSAT 1 03 Sep 07:58:41 08:06:49 76° 52° (NE) 08:14:53 435.175 FM
STRAND 1 03 Sep 08:10:08 08:14:22 26° 266° (W) 08:18:37 ?
